Location: Ellingshausen
(50.5460°N, 10.4723°E)
Time: 23:36:50
(UTC+00:00)

Meteor 2-15 - Pass Details

Date: 18 January 2026
Orbit: 936 x 955 km, 82.5° (Epoch: 9 February)

Event Time Altitude Azimuth Distance (km) Brightness Sun altitude
Rises 06:27:48 0° 191° (S) 3,618 7.7 -6.8°
Reaches altitude 10° 06:30:17 10° 192° (SSW) 2,678 7.0 -6.4°
Maximum altitude 06:36:26 82° 281° (W) 971 4.5 -5.6°
Drops below altitude 10° 06:42:38 10° 9° (N) 2,696 6.7 -4.7°
Sets 06:45:09 0° 11° (N) 3,644 7.3 -4.3°
